Location: Duncanville
(32.6518°N, 96.9083°W)
Time: 10:40:37
(UTC+00:00)

Cosmos 1025 Rocket - Pass Details

Date: 11 February 2026
Orbit: 587 x 609 km, 82.5° (Epoch: 7 March)

Event Time Altitude Azimuth Distance (km) Brightness Sun altitude
Rises 12:01:52 0° 354° (N) 2,873 6.4 -15.8°
Reaches altitude 10° 12:04:06 10° 354° (N) 1,964 5.5 -15.3°
Maximum altitude 12:08:27 87° 81° (E) 612 3.0 -14.4°
Drops below altitude 10° 12:12:46 10° 174° (S) 1,943 5.8 -13.5°
Sets 12:14:57 0° 174° (S) 2,839 6.6 -13.0°
